Time,TemperatureF,DewpointF,PressureIn,WindDirection,WindDirectionDegrees,WindSpeedMPH,WindSpeedGustMPH,Humidity,HourlyPrecipIn,Conditions,Clouds,dailyrainin,SolarRadiationWatts/m^2,SoftwareType,DateUTC
2013-10-18 00:00:00,47.0,37.0,-100.00,ENE,67,15.0,22.0,67,0.00,,,0.00,0.000000,,2013-10-18 07:00:00,
2013-10-18 00:42:00,47.0,37.0,-100.00,ENE,67,15.0,22.0,67,0.00,,,0.00,0.000000,,2013-10-18 07:42:00,
2013-10-18 00:52:00,47.0,37.0,-100.00,ENE,67,15.0,22.0,67,0.00,,,0.00,0.000000,,2013-10-18 07:52:00,
2013-10-18 01:00:00,47.0,35.0,-100.00,ENE,66,18.0,29.0,64,0.00,,,0.00,0.000000,,2013-10-18 08:00:00,
2013-10-18 01:22:00,47.0,35.0,-100.00,ENE,66,18.0,29.0,64,0.00,,,0.00,0.000000,,2013-10-18 08:22:00,
2013-10-18 01:32:00,47.0,35.0,-100.00,ENE,66,18.0,29.0,64,0.00,,,0.00,0.000000,,2013-10-18 08:32:00,
2013-10-18 01:42:00,47.0,35.0,-100.00,ENE,66,18.0,29.0,64,0.00,,,0.00,0.000000,,2013-10-18 08:42:00,
2013-10-18 01:52:00,47.0,35.0,-100.00,ENE,66,18.0,29.0,64,0.00,,,0.00,0.000000,,2013-10-18 08:52:00,
2013-10-18 02:00:00,48.0,37.0,-100.00,ENE,65,19.0,31.0,65,0.00,,,0.00,0.000000,,2013-10-18 09:00:00,
2013-10-18 02:43:00,48.0,37.0,-100.00,ENE,65,19.0,31.0,65,0.00,,,0.00,0.000000,,2013-10-18 09:43:00,
2013-10-18 02:53:00,48.0,37.0,-100.00,ENE,65,19.0,31.0,65,0.00,,,0.00,0.000000,,2013-10-18 09:53:00,
2013-10-18 03:00:00,49.0,37.0,-100.00,ENE,64,18.0,28.0,64,0.00,,,0.00,0.000000,,2013-10-18 10:00:00,
2013-10-18 03:43:00,49.0,37.0,-100.00,ENE,64,18.0,28.0,64,0.00,,,0.00,0.000000,,2013-10-18 10:43:00,
2013-10-18 03:53:00,49.0,37.0,-100.00,ENE,64,18.0,28.0,64,0.00,,,0.00,0.000000,,2013-10-18 10:53:00,
2013-10-18 04:00:00,49.0,39.0,-100.00,ENE,60,20.0,29.0,69,0.00,,,0.00,0.000000,,2013-10-18 11:00:00,
2013-10-18 04:42:00,49.0,39.0,-100.00,ENE,60,20.0,29.0,69,0.00,,,0.00,0.000000,,2013-10-18 11:42:00,
2013-10-18 04:52:00,49.0,39.0,-100.00,ENE,60,20.0,29.0,69,0.00,,,0.00,0.000000,,2013-10-18 11:52:00,
2013-10-18 05:00:00,48.0,38.0,-100.00,ENE,61,18.0,32.0,69,0.00,,,0.00,0.000000,,2013-10-18 12:00:00,
2013-10-18 05:42:00,48.0,38.0,-100.00,ENE,61,18.0,32.0,69,0.00,,,0.00,0.000000,,2013-10-18 12:42:00,
2013-10-18 05:52:00,48.0,38.0,-100.00,ENE,61,18.0,32.0,69,0.00,,,0.00,0.000000,,2013-10-18 12:52:00,
2013-10-18 06:00:00,48.0,40.0,-100.00,ENE,61,18.0,30.0,75,0.00,,,0.00,0.000000,,2013-10-18 13:00:00,
2013-10-18 06:42:00,48.0,40.0,-100.00,ENE,61,18.0,30.0,75,0.00,,,0.00,0.000000,,2013-10-18 13:42:00,
2013-10-18 06:52:00,48.0,40.0,-100.00,ENE,61,18.0,30.0,75,0.00,,,0.00,0.000000,,2013-10-18 13:52:00,
2013-10-18 07:00:00,46.0,40.0,-100.00,ENE,59,16.0,25.0,80,0.00,,,0.00,0.000000,,2013-10-18 14:00:00,
2013-10-18 07:42:00,46.0,40.0,-100.00,ENE,59,16.0,25.0,80,0.00,,,0.00,0.000000,,2013-10-18 14:42:00,
2013-10-18 07:52:00,46.0,40.0,-100.00,ENE,59,16.0,25.0,80,0.00,,,0.00,0.000000,,2013-10-18 14:52:00,
2013-10-18 08:00:00,45.0,42.0,-100.00,ENE,62,14.0,22.0,88,0.00,,,0.00,3.000000,,2013-10-18 15:00:00,
2013-10-18 08:43:00,45.0,42.0,-100.00,ENE,62,14.0,22.0,88,0.00,,,0.00,3.000000,,2013-10-18 15:43:00,
2013-10-18 08:54:00,45.0,42.0,-100.00,ENE,62,14.0,22.0,88,0.00,,,0.00,3.000000,,2013-10-18 15:54:00,
2013-10-18 09:00:00,50.0,42.0,-100.00,ENE,62,11.0,20.0,74,0.00,,,0.00,108.000000,,2013-10-18 16:00:00,
2013-10-18 09:24:00,50.0,42.0,-100.00,ENE,62,11.0,20.0,74,0.00,,,0.00,108.000000,,2013-10-18 16:24:00,
2013-10-18 09:33:00,50.0,42.0,-100.00,ENE,62,11.0,20.0,74,0.00,,,0.00,108.000000,,2013-10-18 16:33:00,
2013-10-18 09:42:00,50.0,42.0,-100.00,ENE,62,11.0,20.0,74,0.00,,,0.00,108.000000,,2013-10-18 16:42:00,
2013-10-18 09:53:00,50.0,42.0,-100.00,ENE,62,11.0,20.0,74,0.00,,,0.00,108.000000,,2013-10-18 16:53:00,
2013-10-18 10:00:00,54.0,43.0,-100.00,ENE,59,10.0,19.0,65,0.00,,,0.00,289.000000,,2013-10-18 17:00:00,
2013-10-18 10:42:00,54.0,43.0,-100.00,ENE,59,10.0,19.0,65,0.00,,,0.00,289.000000,,2013-10-18 17:42:00,
2013-10-18 10:52:00,54.0,43.0,-100.00,ENE,59,10.0,19.0,65,0.00,,,0.00,289.000000,,2013-10-18 17:52:00,
2013-10-18 11:00:00,53.0,41.0,-100.00,NE,47,9.0,15.0,63,0.00,,,0.00,449.000000,,2013-10-18 18:00:00,
2013-10-18 11:42:00,53.0,41.0,-100.00,NE,47,9.0,15.0,63,0.00,,,0.00,449.000000,,2013-10-18 18:42:00,
2013-10-18 11:52:00,53.0,41.0,-100.00,NE,47,9.0,15.0,63,0.00,,,0.00,449.000000,,2013-10-18 18:52:00,
2013-10-18 12:00:00,56.0,41.0,-100.00,ENE,58,10.0,14.0,57,0.00,,,0.00,548.000000,,2013-10-18 19:00:00,
2013-10-18 12:42:00,56.0,41.0,-100.00,ENE,58,10.0,14.0,57,0.00,,,0.00,548.000000,,2013-10-18 19:42:00,
2013-10-18 12:52:00,56.0,41.0,-100.00,ENE,58,10.0,14.0,57,0.00,,,0.00,548.000000,,2013-10-18 19:52:00,
2013-10-18 13:00:00,57.0,41.0,-100.00,NE,56,5.0,17.0,56,0.00,,,0.00,614.000000,,2013-10-18 20:00:00,
2013-10-18 13:22:00,57.0,41.0,-100.00,NE,56,5.0,17.0,56,0.00,,,0.00,614.000000,,2013-10-18 20:22:00,
2013-10-18 13:32:00,57.0,41.0,-100.00,NE,56,5.0,17.0,56,0.00,,,0.00,614.000000,,2013-10-18 20:32:00,
2013-10-18 13:42:00,57.0,41.0,-100.00,NE,56,5.0,17.0,56,0.00,,,0.00,614.000000,,2013-10-18 20:42:00,
2013-10-18 13:52:00,57.0,41.0,-100.00,NE,56,5.0,17.0,56,0.00,,,0.00,614.000000,,2013-10-18 20:52:00,
2013-10-18 14:00:00,58.0,45.0,-100.00,NE,42,6.0,8.0,63,0.00,,,0.00,578.000000,,2013-10-18 21:00:00,
2013-10-18 14:44:00,58.0,45.0,-100.00,NE,42,6.0,8.0,63,0.00,,,0.00,578.000000,,2013-10-18 21:44:00,
2013-10-18 14:54:00,58.0,45.0,-100.00,NE,42,6.0,8.0,63,0.00,,,0.00,578.000000,,2013-10-18 21:54:00,
2013-10-18 15:00:00,61.0,45.0,-100.00,NE,50,1.0,7.0,56,0.00,,,0.00,585.000000,,2013-10-18 22:00:00,
2013-10-18 15:43:00,61.0,45.0,-100.00,NE,50,1.0,7.0,56,0.00,,,0.00,585.000000,,2013-10-18 22:43:00,
2013-10-18 15:54:00,61.0,45.0,-100.00,NE,50,1.0,7.0,56,0.00,,,0.00,585.000000,,2013-10-18 22:54:00,
2013-10-18 16:00:00,62.0,42.0,-100.00,NE,38,1.0,4.0,48,0.00,,,0.00,472.000000,,2013-10-18 23:00:00,
2013-10-18 16:43:00,62.0,42.0,-100.00,NE,38,1.0,4.0,48,0.00,,,0.00,472.000000,,2013-10-18 23:43:00,
2013-10-18 16:53:00,62.0,42.0,-100.00,NE,38,1.0,4.0,48,0.00,,,0.00,472.000000,,2013-10-18 23:53:00,
2013-10-18 17:00:00,61.0,37.0,-100.00,East,81,0.0,4.0,41,0.00,,,0.00,317.000000,,2013-10-19 00:00:00,
2013-10-18 17:22:00,61.0,37.0,-100.00,East,81,0.0,4.0,41,0.00,,,0.00,317.000000,,2013-10-19 00:22:00,
2013-10-18 17:32:00,61.0,37.0,-100.00,East,81,0.0,4.0,41,0.00,,,0.00,317.000000,,2013-10-19 00:32:00,
2013-10-18 17:42:00,61.0,37.0,-100.00,East,81,0.0,4.0,41,0.00,,,0.00,317.000000,,2013-10-19 00:42:00,
2013-10-18 17:52:00,61.0,37.0,-100.00,East,81,0.0,4.0,41,0.00,,,0.00,317.000000,,2013-10-19 00:52:00,
2013-10-18 18:00:00,59.0,36.0,-100.00,East,96,0.0,0.0,42,0.00,,,0.00,133.000000,,2013-10-19 01:00:00,
2013-10-18 18:42:00,59.0,36.0,-100.00,East,96,0.0,0.0,42,0.00,,,0.00,133.000000,,2013-10-19 01:42:00,
2013-10-18 18:53:00,59.0,36.0,-100.00,East,96,0.0,0.0,42,0.00,,,0.00,133.000000,,2013-10-19 01:53:00,
2013-10-18 19:00:00,54.0,36.0,-100.00,ESE,114,0.0,0.0,51,0.00,,,0.00,7.000000,,2013-10-19 02:00:00,
2013-10-18 19:42:00,54.0,36.0,-100.00,ESE,114,0.0,0.0,51,0.00,,,0.00,7.000000,,2013-10-19 02:42:00,
2013-10-18 19:52:00,54.0,36.0,-100.00,ESE,114,0.0,0.0,51,0.00,,,0.00,7.000000,,2013-10-19 02:52:00,
2013-10-18 20:00:00,55.0,33.0,-100.00,NE,34,3.0,4.0,44,0.00,,,0.00,0.000000,,2013-10-19 03:00:00,
2013-10-18 20:45:00,55.0,33.0,-100.00,NE,34,3.0,4.0,44,0.00,,,0.00,0.000000,,2013-10-19 03:45:00,
2013-10-18 20:55:00,55.0,33.0,-100.00,NE,34,3.0,4.0,44,0.00,,,0.00,0.000000,,2013-10-19 03:55:00,
2013-10-18 21:00:00,55.0,41.0,-100.00,NE,38,4.0,4.0,59,0.00,,,0.00,0.000000,,2013-10-19 04:00:00,
2013-10-18 21:44:00,55.0,41.0,-100.00,NE,38,4.0,4.0,59,0.00,,,0.00,0.000000,,2013-10-19 04:44:00,
2013-10-18 21:54:00,55.0,41.0,-100.00,NE,38,4.0,4.0,59,0.00,,,0.00,0.000000,,2013-10-19 04:54:00,
2013-10-18 22:00:00,56.0,33.0,-100.00,NE,52,2.0,4.0,42,0.00,,,0.00,0.000000,,2013-10-19 05:00:00,
2013-10-18 22:52:00,56.0,33.0,-100.00,NE,52,2.0,4.0,42,0.00,,,0.00,0.000000,,2013-10-19 05:52:00,
2013-10-18 23:00:00,54.0,31.0,-100.00,ENE,60,0.0,4.0,41,0.00,,,-99.99,0.000000,,2013-10-19 06:00:00,
2013-10-18 23:42:00,54.0,31.0,-100.00,ENE,60,0.0,4.0,41,0.00,,,-99.99,0.000000,,2013-10-19 06:42:00,
2013-10-18 23:52:00,54.0,31.0,-100.00,ENE,60,0.0,4.0,41,0.00,,,-99.99,0.000000,,2013-10-19 06:52:00,